Date,TemperatureHighF,TemperatureAvgF,TemperatureLowF,DewpointHighF,DewpointAvgF,DewpointLowF,HumidityHigh,HumidityAvg,HumidityLow,PressureMaxIn,PressureMinIn,WindSpeedMaxMPH,WindSpeedAvgMPH,GustSpeedMaxMPH,PrecipitationSumIn
2014-1-1,57.2,52.4,48.8,50.7,47.7,44.6,89,84,76,30.14,30.03,12,2,12,0.00
2014-1-2,56.3,52.2,48.7,51.0,47.7,43.9,92,85,69,30.15,30.09,12,4,12,0.09
2014-1-3,58.1,55.0,52.9,53.5,51.8,49.7,93,89,83,30.21,30.11,14,5,14,0.02
2014-1-4,56.6,55.3,53.3,54.6,53.3,51.6,94,93,91,30.23,30.05,20,9,20,0.37
2014-1-5,57.1,53.4,48.9,55.1,49.6,42.6,93,87,73,30.05,29.83,20,8,20,0.42
2014-1-6,54.7,50.9,48.2,47.5,45.0,42.0,86,80,74,30.21,29.89,18,5,18,0.00
2014-1-7,58.9,52.3,49.0,51.0,47.1,43.6,92,83,70,30.33,30.21,8,2,8,0.00
2014-1-8,54.6,51.4,48.8,52.5,49.3,46.9,95,92,88,30.36,30.29,5,2,5,0.02
2014-1-9,56.6,52.7,50.4,51.5,49.7,48.5,94,90,82,30.30,30.20,5,1,7,0.01
2014-1-10,55.4,52.9,48.7,50.2,48.8,45.5,89,86,83,30.20,30.15,6,2,6,0.00
2014-1-11,55.4,50.8,48.0,49.7,47.3,44.8,92,88,80,30.22,30.16,5,1,5,0.00
2014-1-12,55.0,51.9,48.9,50.3,48.4,46.7,93,88,79,30.20,30.11,9,2,9,0.00
2014-1-13,60.9,54.2,51.4,51.4,48.7,44.3,92,82,68,30.13,30.01,13,2,13,0.00
2014-1-14,55.1,52.5,49.3,52.5,50.3,47.8,95,92,90,30.01,29.83,19,5,20,1.17
2014-1-15,57.7,50.9,48.3,50.5,47.2,44.1,98,87,72,29.99,29.82,6,2,7,0.02
2014-1-16,57.4,51.4,47.6,50.4,47.0,43.8,92,85,75,30.10,29.98,8,3,8,0.00
2014-1-17,56.3,54.0,51.1,52.2,50.2,47.9,89,87,83,30.09,30.00,18,8,18,0.01
2014-1-18,60.4,57.2,54.8,54.5,52.5,49.3,92,85,67,30.02,29.80,29,13,29,0.00
2014-1-19,59.6,58.1,55.5,56.4,54.3,48.9,94,87,79,29.81,29.65,22,11,22,0.00
2014-1-20,56.7,53.8,50.8,53.3,50.6,47.8,93,89,78,29.69,29.52,23,8,23,0.68
2014-1-21,52.2,50.4,47.6,49.9,48.5,46.0,95,93,89,29.83,29.53,24,12,24,1.07
2014-1-22,55.5,50.6,47.5,49.9,46.5,42.4,95,86,71,30.04,29.83,21,7,21,0.19
2014-1-23,53.3,51.2,48.8,49.6,47.4,43.3,92,87,78,30.06,29.97,18,9,18,0.19
2014-1-24,54.1,49.3,44.1,50.4,46.4,42.1,94,90,73,29.97,29.47,20,7,21,0.90
2014-1-25,48.7,45.6,43.5,42.7,37.8,32.6,94,75,60,29.79,29.47,31,14,31,0.05
2014-1-26,50.4,45.4,42.4,37.7,34.4,30.8,73,65,56,29.79,29.67,22,8,22,0.00
2014-1-27,49.3,46.4,42.1,45.7,37.9,29.8,91,73,57,29.76,29.45,21,6,23,0.83
2014-1-28,51.9,48.5,44.4,45.6,41.3,33.8,89,76,56,29.56,29.35,22,10,22,0.04
2014-1-29,52.7,47.9,42.5,49.0,43.0,33.8,92,83,60,29.86,29.57,17,6,17,0.28
2014-1-30,57.8,55.0,51.2,51.9,48.6,46.1,86,79,66,29.89,29.81,30,13,30,0.13
2014-1-31,60.5,58.7,56.1,55.1,51.5,49.8,88,77,70,29.86,29.77,29,12,29,0.09
2014-2-1,58.5,56.3,54.0,55.8,54.4,52.3,95,93,88,29.88,29.75,20,7,20,0.54
2014-2-2,57.7,55.0,53.0,53.2,51.0,48.8,95,87,73,29.76,29.68,25,6,25,0.13
2014-2-3,55.0,50.1,46.5,51.6,48.0,44.9,98,93,88,29.94,29.76,16,5,16,0.90
2014-2-4,51.9,49.7,47.5,48.5,46.5,44.9,94,89,85,30.06,29.94,15,6,15,0.04
2014-2-5,52.8,50.5,48.4,49.4,47.4,44.7,91,89,85,30.05,29.92,12,5,12,0.17
2014-2-6,56.1,51.8,48.6,50.9,46.5,44.1,93,83,67,30.06,29.81,20,7,20,0.25
2014-2-7,56.7,52.7,48.9,50.3,47.2,42.3,87,82,73,30.11,29.98,22,10,22,0.00
2014-2-8,56.7,52.8,50.5,52.6,49.2,46.0,94,88,76,29.98,29.92,20,6,20,0.25
2014-2-9,54.5,52.5,49.2,52.1,48.2,44.1,95,86,74,29.99,29.75,29,10,29,0.68
2014-2-10,57.3,53.2,48.5,53.5,46.1,37.3,89,78,51,29.97,29.74,26,14,26,0.03
2014-2-11,62.7,55.8,49.5,55.6,52.7,47.6,94,89,74,29.82,29.56,15,6,15,0.65
2014-2-12,55.3,51.7,48.5,50.3,47.8,44.9,93,87,79,29.92,29.62,18,9,18,0.18
2014-2-13,57.3,50.8,46.1,50.6,46.2,44.2,94,85,69,30.02,29.92,10,5,10,0.19
2014-2-14,59.7,54.4,51.2,55.0,50.7,47.6,93,87,69,30.02,29.83,15,7,15,0.00
2014-2-15,63.5,56.2,50.1,52.5,48.8,43.6,88,76,64,30.13,30.02,20,8,20,0.00
2014-2-16,65.6,58.9,53.1,50.1,46.3,42.8,76,63,51,30.13,30.05,18,9,18,0.00
2014-2-17,65.8,61.2,56.4,50.4,45.9,36.8,79,58,37,30.15,30.07,20,10,20,0.00
2014-2-18,67.3,64.9,59.2,52.0,39.9,34.0,77,40,32,30.14,30.03,29,15,29,0.19
2014-2-19,61.9,58.9,54.0,55.4,50.5,43.6,93,75,53,30.05,29.96,29,11,29,0.00
2014-2-20,57.2,55.0,51.9,54.8,52.5,50.1,95,91,83,30.00,29.90,18,4,18,0.61
2014-2-21,57.9,52.2,49.5,52.8,49.4,46.4,95,90,75,29.98,29.86,13,4,13,0.52
2014-2-22,56.1,51.6,47.5,52.0,47.7,42.8,91,87,78,30.06,29.96,15,4,15,0.06
2014-2-23,48.7,48.1,46.5,44.4,43.9,42.3,86,85,84,30.07,30.05,4,1,4,0.00
2014-2-24,50.4,49.3,47.7,40.2,39.0,37.8,72,68,63,30.13,30.12,7,3,7,0.00
2014-2-25,58.5,50.9,46.1,46.1,42.1,37.7,85,72,54,30.18,30.11,10,3,10,0.00
2014-2-26,58.2,52.2,46.5,47.2,44.8,42.2,86,76,61,30.23,30.17,12,6,12,0.02
2014-2-27,51.7,49.7,46.2,48.6,45.4,41.4,94,85,71,30.24,30.12,20,8,20,1.47
2014-2-28,56.4,49.5,46.1,47.3,44.8,42.0,94,84,67,30.12,29.81,14,5,14,0.35
2014-3-1,51.6,47.3,42.7,47.9,44.2,39.6,94,89,80,29.81,29.50,25,7,25,1.12
2014-3-2,50.3,45.6,41.8,45.6,41.5,38.9,92,86,76,29.56,29.44,17,5,17,0.47
2014-3-3,57.6,50.0,43.6,46.8,42.8,39.6,89,77,53,29.56,29.37,23,4,23,0.05
2014-3-4,53.9,48.8,45.1,47.6,44.1,41.1,93,84,72,29.53,29.35,24,8,24,0.72
2014-3-5,57.6,50.3,44.8,45.6,42.4,40.3,89,75,59,29.81,29.53,32,9,32,0.05
2014-3-6,57.1,52.1,48.0,45.3,42.2,38.8,83,69,58,30.01,29.81,24,12,24,0.00
2014-3-7,57.4,52.9,48.3,47.1,43.5,39.6,89,71,61,30.09,29.98,27,14,27,0.00
2014-3-8,58.6,53.5,47.8,44.9,41.5,38.6,74,64,55,30.23,30.06,24,11,24,0.00
2014-3-9,60.9,54.3,50.2,44.5,41.5,37.7,75,62,49,30.23,30.10,25,10,25,0.00
2014-3-10,53.7,50.8,48.3,42.8,40.7,38.4,75,68,60,30.10,29.96,16,6,16,0.00
2014-3-11,54.4,50.6,46.6,43.7,39.8,36.2,72,66,60,30.24,30.00,14,6,14,0.00
2014-3-12,57.6,51.9,48.7,44.0,40.8,37.2,80,66,53,30.35,30.24,8,3,8,0.00
2014-3-13,61.6,54.2,47.0,46.9,39.3,32.3,75,58,42,30.34,30.26,9,4,9,0.00
2014-3-14,62.0,55.7,51.3,50.3,43.4,36.4,83,64,40,30.28,30.18,16,5,16,0.00
2014-3-15,61.0,54.7,50.8,52.5,46.0,37.4,91,73,49,30.19,30.00,10,3,10,0.00
2014-3-16,60.3,54.3,50.0,53.6,50.6,47.6,93,87,76,30.09,29.95,9,3,9,0.01
2014-3-17,60.7,54.6,49.9,55.2,51.4,48.2,95,89,80,30.23,30.09,12,4,12,0.01
2014-3-18,61.7,55.3,50.1,55.1,51.6,48.4,95,88,74,30.24,30.17,9,4,9,0.01
2014-3-19,61.2,54.9,50.4,53.2,50.9,48.5,94,87,74,30.21,30.13,12,4,12,0.00
2014-3-20,68.7,58.9,51.7,55.7,50.8,45.5,93,76,45,30.24,30.18,7,3,7,0.01
2014-3-30,68.0,61.8,55.1,49.5,42.3,36.6,64,50,34,30.09,30.01,12,3,12,0.01
2014-3-31,66.2,58.3,52.9,54.4,46.3,39.1,91,65,43,30.06,29.97,12,3,12,0.00
2014-4-1,60.9,55.9,52.3,55.1,51.8,49.2,92,86,74,30.07,30.02,12,4,12,0.01
2014-4-2,61.6,55.5,50.2,54.6,50.9,46.5,95,85,74,30.06,29.97,12,3,12,0.01
2014-4-3,65.8,58.3,51.9,52.8,47.1,41.2,90,69,43,29.99,29.71,28,7,28,0.00
2014-4-4,66.9,59.5,52.1,57.4,51.4,40.7,93,77,39,29.75,29.65,24,8,24,0.18
2014-4-5,65.3,56.5,51.3,55.3,50.2,47.3,93,80,59,29.79,29.67,21,8,21,0.37
2014-4-6,69.7,59.6,55.4,54.0,50.3,47.2,80,72,53,30.00,29.79,23,8,23,0.00
2014-4-7,69.3,62.3,56.4,53.9,48.6,45.6,70,61,52,30.13,29.99,12,4,12,0.00
2014-4-8,69.1,61.3,57.0,56.9,51.8,47.4,86,71,58,30.16,30.09,17,7,17,0.00
2014-4-9,63.8,59.0,55.9,56.3,54.4,50.9,92,85,72,30.06,29.97,15,9,15,0.00
2014-4-10,57.6,55.2,53.7,50.6,38.9,34.3,78,54,45,30.06,30.04,14,10,14,0.00
2014-4-11,53.7,53.7,53.7,39.3,39.3,39.3,58,58,58,30.06,30.06,9,9,9,0.00
2014-4-12,55.0,54.4,53.7,52.1,49.0,39.3,92,83,58,30.06,30.03,9,3,9,0.01
2014-4-13,64.6,56.8,52.2,57.3,53.4,48.8,95,89,72,30.04,29.96,8,2,8,0.19
2014-4-14,65.7,58.9,52.1,54.5,48.0,38.6,92,68,46,30.08,29.99,12,4,12,0.06
2014-4-15,60.9,55.0,44.3,57.7,52.0,39.9,93,90,69,30.00,29.79,31,8,31,0.31
2014-4-16,57.3,51.5,48.2,41.3,37.4,33.7,76,59,45,30.00,29.84,34,16,35,0.03
2014-4-17,62.5,51.5,46.6,41.9,38.7,34.9,76,62,37,30.01,29.87,20,7,20,0.01
2014-4-18,60.4,53.1,47.5,48.0,42.4,37.3,85,67,51,29.89,29.77,18,4,18,0.00
2014-4-19,59.2,55.4,52.0,56.2,51.5,47.0,92,87,83,29.82,29.75,25,9,25,0.06
2014-4-20,65.5,59.3,55.1,56.1,49.0,35.1,92,70,35,29.79,29.70,22,10,22,0.00
2014-4-21,76.3,64.4,56.5,56.7,50.6,42.5,92,63,39,29.86,29.64,18,5,18,0.02
2014-4-22,75.6,63.1,56.2,59.4,55.2,52.6,92,77,48,29.95,29.83,16,7,16,0.08
2014-4-23,64.1,59.6,56.5,56.7,54.8,52.1,96,84,68,29.94,29.81,20,8,20,0.45
2014-4-24,68.3,61.8,54.6,59.7,54.9,50.0,89,78,66,29.92,29.88,16,4,16,0.45
2014-4-25,71.0,62.3,57.4,59.9,55.5,52.4,90,79,62,29.92,29.85,15,7,15,0.00
2014-4-26,63.6,58.6,55.3,60.2,55.8,52.7,94,90,85,29.85,29.78,18,4,18,0.45
2014-4-27,64.1,57.7,52.6,58.8,54.5,50.3,94,89,80,29.84,29.70,15,5,15,0.18
2014-4-28,62.1,55.8,51.8,55.6,52.6,49.8,94,89,75,29.82,29.67,17,7,17,0.18
2014-4-29,62.0,56.1,49.4,53.4,50.6,46.7,92,82,72,29.87,29.74,16,7,16,0.23
2014-4-30,62.4,58.0,54.2,57.0,54.4,51.3,93,88,80,29.90,29.85,14,5,14,0.02
2014-5-1,67.7,58.9,51.8,57.0,53.8,49.8,94,84,64,29.89,29.81,14,5,14,0.24
2014-5-2,61.4,57.7,53.6,55.5,53.6,51.3,93,87,78,29.90,29.78,10,4,10,0.06
2014-5-3,60.6,54.6,51.6,56.4,50.9,48.6,94,88,76,29.78,29.61,14,6,14,0.62
2014-5-4,67.3,58.4,50.8,53.8,49.7,44.5,92,74,59,29.87,29.65,13,4,13,0.00
2014-5-5,69.3,59.8,53.8,56.1,48.8,43.4,86,68,50,30.08,29.87,21,8,21,0.00
2014-5-6,66.0,59.9,53.5,57.7,54.7,51.2,94,83,71,30.19,30.08,13,3,13,0.00
2014-5-7,66.7,60.4,54.0,58.2,55.1,51.4,93,83,68,30.19,30.06,16,5,16,0.01
2014-5-8,68.1,61.2,54.9,59.5,56.3,52.8,95,84,71,30.09,30.02,12,3,12,0.01
2014-5-9,70.0,62.6,57.0,61.1,56.5,50.8,92,81,62,30.06,30.00,12,4,12,0.00
2014-5-10,72.3,63.8,58.0,60.7,56.9,49.5,91,79,56,30.07,30.02,12,5,12,0.00
2014-5-11,73.0,64.6,57.6,60.4,54.3,45.2,93,71,48,30.07,29.93,14,6,14,0.00
2014-5-12,70.5,64.2,59.7,61.8,57.7,51.4,89,80,59,30.01,29.94,17,6,17,0.00
2014-5-13,73.2,62.9,56.9,59.1,54.6,48.7,89,75,47,30.02,29.83,12,5,12,0.02
2014-5-14,69.1,61.0,56.9,54.8,49.6,44.9,87,67,50,30.03,29.80,20,8,20,0.00
2014-5-15,63.7,57.3,55.4,52.2,45.3,41.9,80,65,56,30.02,29.94,20,5,20,0.00
2014-5-16,66.3,57.3,53.5,51.3,45.4,41.3,81,65,49,29.98,29.91,13,4,13,0.02
2014-5-17,63.2,58.2,52.5,54.6,51.6,46.1,90,79,69,30.11,29.96,15,8,15,0.26
2014-5-18,72.5,63.9,56.5,55.6,49.5,34.2,88,63,35,30.11,30.03,15,6,15,0.00
2014-5-19,66.1,62.4,59.5,57.0,50.3,38.6,82,66,39,30.04,29.99,14,4,14,0.01
2014-5-20,73.2,65.7,58.5,59.8,55.7,50.6,84,71,57,30.11,30.03,9,4,9,0.00
2014-5-21,78.3,68.7,59.7,61.5,55.8,49.6,83,64,46,30.12,30.05,8,3,8,0.00
2014-5-22,81.8,71.3,62.7,64.4,57.5,50.5,79,63,44,30.08,30.00,9,4,9,0.00
2014-5-23,77.2,68.5,63.9,64.1,58.2,47.1,90,70,44,30.06,29.90,17,6,17,0.02
2014-5-24,78.5,68.8,62.9,64.9,60.6,56.3,92,76,51,30.04,29.98,12,4,12,0.02
2014-5-25,84.3,71.9,63.8,66.2,61.3,57.8,86,71,43,30.03,29.92,12,4,12,0.01
2014-5-26,75.1,69.5,62.7,66.4,61.5,58.3,89,76,60,30.03,29.95,12,4,12,0.00
2014-5-27,72.5,64.7,59.8,62.4,57.6,49.8,89,78,62,30.03,29.98,12,4,12,0.23
2014-5-28,70.9,63.6,58.3,60.1,55.0,49.5,81,74,65,30.02,29.90,12,5,12,0.00
2014-5-29,71.8,64.6,59.0,60.3,56.0,53.4,83,74,63,29.93,29.85,12,4,12,0.00
2014-5-30,70.7,64.7,60.0,61.9,59.3,56.2,91,83,70,29.97,29.90,14,5,14,0.00
2014-5-31,71.7,63.3,58.3,60.9,57.5,52.8,92,82,68,29.98,29.92,13,5,13,0.03
2014-6-1,72.5,64.5,57.1,56.9,53.3,46.3,89,68,50,30.01,29.94,11,5,11,0.00
2014-6-2,78.3,67.8,59.5,57.2,49.4,42.1,62,52,39,30.01,29.89,16,6,16,0.00
2014-6-3,80.7,68.6,60.0,61.4,52.4,45.7,75,58,33,29.92,29.83,15,4,15,0.03
2014-6-4,75.7,69.1,62.7,65.1,55.9,43.7,87,64,43,30.00,29.85,12,4,12,0.00
2014-6-5,75.3,67.0,59.9,63.1,58.6,47.1,90,75,53,30.09,29.99,12,3,12,0.00
2014-6-6,80.8,70.7,60.6,60.8,54.9,46.9,83,59,33,30.11,30.04,8,3,8,0.00
2014-6-7,86.0,74.5,63.6,66.5,60.1,54.6,82,61,43,30.08,30.03,9,3,9,0.00
2014-6-8,86.7,77.8,68.6,63.5,58.6,52.6,70,52,39,30.07,30.02,9,3,9,0.00
2014-6-9,90.0,78.9,70.5,65.2,56.6,47.3,60,47,36,30.06,29.99,10,3,10,0.00
2014-6-10,90.8,80.2,66.9,67.1,57.9,51.7,78,48,32,30.07,30.00,15,4,22,0.16
2014-6-11,88.5,79.0,70.5,69.6,62.9,55.8,71,58,43,30.11,30.04,8,3,8,0.00
2014-6-12,85.2,76.9,68.4,72.2,66.3,61.7,86,70,52,30.10,30.02,12,3,12,0.00
2014-6-13,83.9,75.3,70.2,73.0,67.7,62.2,89,78,58,30.05,29.90,10,3,10,0.00
2014-6-14,81.2,75.5,69.2,69.9,67.6,63.3,90,77,65,29.90,29.77,15,5,15,0.18
2014-6-15,78.3,72.8,68.0,71.0,67.0,61.7,90,82,70,29.86,29.76,15,5,15,0.20
2014-6-16,75.2,68.7,64.8,68.9,64.1,59.1,93,85,69,29.93,29.83,16,6,16,0.70
2014-6-17,75.7,70.3,65.5,67.5,64.9,62.4,93,83,73,29.89,29.84,15,5,15,0.01
2014-6-18,75.0,69.3,64.1,67.0,63.6,61.4,92,83,67,29.97,29.88,13,5,13,0.09
2014-6-19,76.2,67.1,63.0,64.5,62.0,59.0,93,84,66,29.97,29.91,17,4,17,0.27
2014-6-20,77.7,69.3,61.3,66.3,62.7,58.7,95,81,55,29.98,29.93,10,3,10,0.01
2014-6-21,77.8,70.7,63.7,67.0,63.8,58.3,91,80,56,30.07,29.97,12,3,12,0.00
2014-6-22,79.5,72.4,63.2,67.6,63.8,58.1,92,75,52,30.17,30.07,10,3,10,0.01
2014-6-23,82.0,74.4,63.9,68.2,60.4,49.6,89,63,39,30.20,30.09,20,4,20,0.00
2014-6-24,86.7,78.2,69.1,66.8,56.6,47.3,69,49,30,30.10,29.91,21,5,21,0.00
2014-6-25,81.9,75.5,68.8,70.0,64.8,52.9,91,71,45,30.02,29.83,23,6,24,0.10
2014-6-26,83.0,73.4,67.8,71.3,67.3,64.2,93,82,61,29.98,29.85,13,4,13,0.02
2014-6-27,80.5,72.9,68.0,68.4,65.7,56.4,89,79,61,30.10,29.93,12,4,12,0.00
2014-6-28,81.0,73.0,67.1,69.2,66.3,59.8,91,80,62,30.12,30.06,12,4,12,0.00
2014-6-29,79.7,74.6,66.9,68.9,61.9,50.3,89,67,39,30.07,29.86,20,9,20,0.00
2014-6-30,75.6,71.9,65.7,69.6,64.0,54.3,92,77,48,30.02,29.80,17,8,17,0.00
2014-7-1,79.2,71.5,64.5,63.9,61.1,58.7,87,71,53,30.09,30.01,13,5,13,0.00
2014-7-2,78.6,71.9,64.4,66.4,62.9,57.4,91,74,57,30.18,30.07,10,3,10,0.00
2014-7-3,87.3,74.7,66.1,70.2,63.5,58.8,84,69,43,30.24,30.16,10,3,10,0.00
2014-7-4,89.5,79.8,72.3,69.3,64.1,60.3,75,60,42,30.17,30.00,9,3,9,0.00
2014-7-5,78.7,74.6,71.1,72.6,66.8,56.8,87,77,58,30.02,29.94,16,5,16,0.00
2014-7-6,71.3,71.3,71.3,67.2,67.2,67.2,87,87,87,29.98,29.98,0,0,0,0.00
2014-7-7,77.7,76.4,71.3,67.2,65.3,64.3,87,69,65,29.99,29.95,16,10,16,0.00
2014-7-8,81.7,75.6,69.8,71.9,64.5,44.3,85,70,29,29.95,29.88,25,9,25,0.00
2014-7-9,76.2,71.4,67.2,64.1,60.7,56.5,77,69,60,29.94,29.86,20,9,20,0.00
2014-7-10,73.1,68.6,62.3,63.2,60.6,58.4,93,76,65,29.86,29.77,18,8,18,0.25
2014-7-11,78.3,69.7,62.1,64.8,61.9,58.4,90,77,57,29.89,29.77,12,4,12,0.00
2014-7-12,77.3,71.3,66.0,67.6,64.2,62.3,89,79,66,29.98,29.89,12,5,12,0.00
2014-7-13,78.0,70.4,64.6,65.0,62.5,58.0,90,77,56,30.00,29.93,13,4,13,0.02
2014-7-14,76.7,69.5,65.2,66.6,63.7,60.6,92,82,66,30.00,29.92,15,5,15,0.06
2014-7-15,79.8,70.8,62.6,67.5,64.0,59.3,96,80,61,30.02,29.95,12,4,12,0.01
2014-7-16,85.3,75.8,68.4,68.4,63.9,58.3,82,67,51,30.03,29.97,12,3,12,0.00
2014-7-17,84.0,77.2,70.0,71.1,65.5,59.0,81,68,53,30.04,29.99,12,3,12,0.00
2014-7-18,86.5,77.7,70.1,71.8,64.8,58.9,86,65,48,30.04,29.98,22,3,22,0.00
2014-7-19,87.1,79.6,71.6,68.9,62.5,56.5,71,56,43,30.04,30.00,10,3,10,0.00
2014-7-20,91.5,81.7,74.1,70.8,63.3,56.4,74,54,41,30.05,29.96,7,3,7,0.00
2014-7-21,80.6,73.9,63.5,70.5,66.1,57.5,92,78,50,30.04,29.87,24,6,24,1.31
2014-7-22,76.2,69.7,64.9,66.6,64.6,41.3,93,84,70,29.88,21.06,50,5,50,0.40
2014-7-23,80.0,72.3,63.6,68.7,64.8,60.7,92,78,54,29.90,29.79,12,3,12,0.00
2014-7-24,80.3,73.9,67.8,71.0,67.8,64.6,92,82,67,29.95,29.87,12,3,12,0.00
2014-7-25,80.7,74.9,69.2,69.7,68.1,66.5,92,80,65,29.97,29.92,11,3,12,0.00
2014-7-26,83.4,75.1,70.0,72.4,66.5,63.0,87,75,53,29.97,29.82,20,5,20,0.11
2014-7-27,80.0,75.2,68.6,72.2,69.0,65.0,92,81,73,29.92,29.81,15,5,15,0.02
2014-7-28,80.5,73.9,68.4,71.4,67.8,65.2,91,82,69,29.94,29.90,13,4,13,0.00
2014-7-29,79.5,74.9,68.8,70.6,67.0,62.7,90,77,63,29.93,29.76,18,9,18,0.00
2014-7-30,76.9,72.2,66.8,70.6,64.8,60.6,90,78,60,29.82,29.71,17,6,17,0.24
2014-7-31,79.7,72.0,64.7,68.2,66.0,62.3,94,82,65,29.87,29.79,12,4,12,0.43
2014-8-1,80.1,74.7,69.1,72.1,68.9,66.0,92,82,71,29.88,29.82,13,4,13,0.00
2014-8-2,81.0,75.4,70.7,72.6,70.1,67.3,93,84,72,29.97,29.86,10,4,10,0.00
2014-8-3,86.6,76.8,70.8,71.9,69.5,64.0,92,79,59,29.99,29.90,15,3,15,0.00
2014-8-4,86.8,78.1,70.0,74.2,69.8,62.5,86,76,62,29.97,29.92,12,3,12,0.00
2014-8-5,83.3,76.5,70.1,73.9,68.7,58.5,91,77,60,29.96,29.86,12,4,12,0.00
2014-8-6,82.3,75.8,70.4,71.7,68.6,61.4,90,79,64,29.89,29.83,12,4,12,0.00
2014-8-7,84.8,76.4,70.4,68.9,65.2,60.5,87,69,47,29.95,29.86,12,4,12,0.00
2014-8-8,82.5,75.5,69.9,72.7,69.5,65.6,90,82,66,30.01,29.95,12,3,12,0.00
2014-8-9,84.3,76.5,70.7,73.1,69.5,64.2,94,80,56,30.05,29.99,8,3,8,0.00
2014-8-10,87.6,77.7,69.6,72.7,66.7,58.2,81,69,60,30.05,29.99,8,3,8,0.00
2014-8-11,91.2,79.0,70.4,72.1,64.3,51.3,88,63,33,30.01,29.95,12,3,12,0.00
2014-8-12,87.2,79.5,71.9,72.0,63.4,53.8,75,59,44,29.98,29.92,10,3,10,0.00
2014-8-13,88.8,80.2,71.7,69.3,60.4,43.4,82,53,28,29.95,29.84,12,4,12,0.00
2014-8-14,85.2,78.0,71.1,71.3,65.3,54.8,78,66,46,29.98,29.85,13,4,13,0.00
2014-8-15,78.8,73.0,67.3,65.1,62.5,59.2,82,70,58,30.02,29.97,14,5,14,0.00
2014-8-16,78.5,72.9,69.0,65.4,61.8,54.6,80,69,58,30.02,29.97,16,6,17,0.00
2014-8-17,79.3,72.9,66.2,66.0,61.7,55.8,78,68,55,30.02,29.98,12,4,12,0.00
2014-8-18,79.0,72.3,65.5,66.5,63.5,60.1,86,74,62,30.03,29.99,15,4,15,0.00
2014-8-19,79.7,73.4,65.3,66.0,57.2,32.0,86,61,18,30.00,29.92,20,7,20,0.00
2014-8-20,82.7,76.0,72.9,71.3,65.2,53.3,86,70,49,30.03,29.95,16,5,16,0.06
2014-8-21,85.5,77.9,72.6,72.7,69.7,65.8,92,76,60,30.02,29.95,12,3,12,0.00
2014-8-22,81.0,75.8,70.3,73.1,70.1,67.3,94,83,67,30.03,29.97,12,3,12,0.01
2014-8-23,83.0,74.8,68.6,71.6,67.7,59.2,94,80,54,30.02,29.91,15,3,15,0.01
2014-8-24,80.2,74.1,69.4,70.8,66.2,60.3,94,77,57,30.02,29.96,14,4,14,0.01
2014-8-25,78.5,72.4,67.5,67.5,64.5,61.4,85,76,66,30.07,29.99,12,4,12,0.00
2014-8-26,80.0,73.4,68.3,68.6,65.7,63.6,89,77,61,30.06,29.98,12,4,12,0.00
2014-8-27,81.0,74.0,66.5,70.6,67.1,63.3,91,80,64,30.00,29.92,12,2,12,0.00
2014-8-28,83.9,76.4,68.0,72.7,68.5,60.6,93,78,58,29.97,29.92,9,2,9,0.00
2014-8-29,85.8,77.1,69.6,70.8,67.2,59.4,91,73,43,30.01,29.96,13,3,13,0.00
2014-8-30,83.1,77.1,70.5,72.2,67.6,59.3,87,73,58,30.03,29.97,10,3,10,0.00
2014-8-31,82.1,75.2,70.4,72.2,69.1,66.1,93,82,66,30.00,29.88,10,3,10,0.00
2014-9-1,77.1,70.2,63.6,70.4,64.7,55.0,92,83,68,29.88,29.54,23,7,23,0.72
2014-9-2,76.8,68.7,60.0,66.2,61.0,55.0,88,77,64,29.77,29.59,14,5,14,0.05
2014-9-3,78.7,71.1,65.5,66.3,61.4,56.6,86,72,57,29.84,29.74,12,3,12,0.00
2014-9-4,78.5,71.9,65.9,66.1,63.9,61.4,87,77,61,29.92,29.84,10,3,10,0.00
2014-9-5,79.9,71.6,66.0,69.6,65.2,61.0,90,81,62,29.92,29.83,12,2,12,0.00
2014-9-6,78.0,70.2,65.6,69.4,65.0,61.3,94,84,64,29.89,29.80,13,2,13,0.27
2014-9-7,78.1,71.0,65.3,68.7,65.3,60.8,89,83,71,29.99,29.88,9,2,9,0.00
2014-9-8,79.1,72.2,67.8,70.9,67.5,64.2,94,86,72,30.07,29.98,12,3,12,0.00
2014-9-9,79.2,72.7,68.1,71.1,68.3,65.7,94,86,74,30.07,29.98,10,2,10,0.01
2014-9-10,79.6,72.6,68.2,71.4,67.5,63.1,94,84,69,30.01,29.88,14,3,14,0.02
2014-9-11,79.8,71.5,64.1,69.5,65.9,61.7,92,83,68,29.90,29.81,16,5,16,0.25
2014-9-12,81.5,72.6,64.2,71.3,66.9,61.8,93,83,60,29.93,29.83,21,7,21,0.63
2014-9-13,78.1,72.5,66.7,71.8,65.8,60.0,94,80,63,30.00,29.90,16,5,16,0.00
2014-9-14,78.1,70.5,62.9,66.4,62.2,55.0,87,75,63,30.01,29.96,10,3,10,0.00
2014-9-15,77.8,70.6,64.5,66.4,63.0,56.8,89,77,57,30.04,29.97,9,3,9,0.00
2014-9-16,78.2,70.9,64.6,67.2,64.0,61.3,91,80,63,30.00,29.92,8,2,8,0.00
2014-9-17,79.3,72.1,66.3,64.4,61.3,56.6,85,69,55,30.00,29.94,7,2,7,0.00
2014-9-18,81.3,73.8,68.0,66.2,61.5,56.4,80,66,49,30.07,29.97,16,7,16,0.00
2014-9-19,82.0,77.3,72.9,68.4,66.1,61.5,75,68,61,30.11,30.02,20,11,20,0.00
2014-9-20,83.0,77.9,73.5,72.3,68.9,65.8,85,74,68,30.12,30.00,20,6,20,0.00
2014-9-21,83.0,83.0,83.0,71.3,71.3,71.3,68,68,68,30.04,30.04,4,4,4,0.00
2014-9-22,83.0,79.5,71.2,71.3,68.4,60.4,75,69,68,30.04,29.84,11,3,4,0.00
2014-9-23,75.3,71.1,65.7,67.2,58.2,50.6,88,65,46,30.00,29.82,20,5,20,0.02
2014-9-24,67.8,64.8,62.9,57.4,56.0,50.4,81,74,55,30.01,29.97,7,1,7,0.01
2014-9-25,64.3,64.3,64.3,56.9,56.9,56.9,77,77,77,29.98,29.98,0,0,0,0.00
2014-9-26,74.4,67.8,64.3,56.9,52.8,44.4,77,60,45,30.15,29.98,18,6,18,0.00
2014-9-27,67.8,63.7,62.1,54.3,49.1,45.3,66,59,50,30.22,30.15,20,10,20,0.00
2014-9-28,73.3,72.3,71.6,56.5,54.9,53.3,57,54,50,30.30,30.27,18,13,18,0.00
2014-10-9,77.5,74.2,70.8,61.6,59.4,57.1,62,60,58,30.09,30.08,1,1,1,0.00
2014-10-11,80.0,74.4,66.5,67.4,64.0,51.9,89,71,54,30.05,30.03,6,2,6,0.00
2014-10-12,78.3,70.2,64.6,67.7,64.6,58.8,92,83,64,30.08,30.03,6,1,8,0.00
2014-10-13,79.8,72.0,65.9,66.5,61.2,52.2,92,71,47,30.07,29.98,20,4,20,0.00
2014-10-14,81.5,76.7,69.0,63.6,55.3,49.4,79,49,34,30.01,29.84,23,9,23,0.00
2014-10-15,84.1,76.6,70.2,69.2,61.5,54.6,82,61,42,29.99,29.83,18,7,20,0.00
2014-10-16,76.5,71.7,67.5,67.8,65.0,58.0,90,80,58,30.13,29.97,13,5,13,0.00
2014-10-17,75.3,70.3,67.5,68.4,65.9,63.5,90,86,76,30.18,30.10,12,3,12,0.00
2014-10-18,77.6,69.7,65.5,68.5,65.5,63.4,95,87,69,30.25,30.16,6,1,6,0.00
2014-10-19,76.2,70.2,65.7,67.6,63.8,59.3,93,81,67,30.27,30.22,9,2,9,0.01
2014-10-20,75.5,69.3,65.9,68.0,64.8,60.8,94,86,74,30.26,30.11,9,2,9,0.00
2014-10-21,73.4,68.5,64.8,66.3,64.4,62.3,93,87,77,30.11,29.87,12,3,12,0.01
2014-10-22,73.3,65.1,53.9,65.9,57.4,39.0,92,77,52,29.87,29.58,31,9,31,0.02
2014-10-23,64.7,57.1,50.8,44.8,40.0,33.7,67,54,38,29.81,29.65,27,6,27,0.00
2014-10-24,60.4,55.6,51.1,49.1,45.0,38.8,72,67,61,29.95,29.75,21,8,21,0.00
2014-10-25,63.7,58.9,56.0,49.6,46.7,43.5,77,64,53,30.08,29.94,22,9,22,0.00
2014-10-26,67.4,59.9,56.1,51.0,46.4,42.3,67,61,55,30.17,30.08,17,5,17,0.00
2014-10-27,64.4,58.7,53.0,50.1,46.7,42.3,72,64,58,30.18,30.12,12,2,12,0.00
2014-10-28,68.1,59.9,55.3,51.2,47.6,45.0,73,64,50,30.13,30.05,8,3,9,0.00
2014-10-29,66.7,59.2,54.4,53.0,49.0,45.6,81,69,54,30.13,30.04,6,2,6,0.00
2014-10-30,67.4,59.6,55.6,53.3,48.8,44.1,77,68,55,30.17,30.11,14,3,14,0.00
2014-10-31,63.6,59.8,56.4,47.0,46.1,43.1,68,61,53,30.20,30.16,12,8,12,0.00
2014-11-1,67.8,62.9,57.0,49.4,47.9,46.5,70,59,49,30.23,30.18,5,2,5,0.00
2014-11-2,62.0,59.5,58.4,52.9,52.0,51.0,82,76,71,30.19,30.17,4,2,5,0.00
2014-11-3,67.6,61.8,58.3,55.7,53.1,51.1,86,74,59,30.20,30.11,12,4,12,0.00
2014-11-4,67.6,61.3,59.3,60.3,55.8,54.2,86,82,69,30.11,29.92,20,10,20,0.00
2014-11-5,67.6,65.9,63.9,64.1,61.7,57.6,89,86,80,29.92,29.81,16,6,20,0.00
2014-11-6,72.3,68.4,64.6,64.9,61.7,58.4,93,80,64,29.84,29.76,25,9,25,0.00
2014-11-7,66.0,64.2,62.5,59.7,54.4,52.2,84,71,64,29.81,29.66,33,10,28,0.54
2014-11-8,71.2,65.7,62.0,58.0,56.1,52.7,83,72,60,29.92,29.75,15,5,14,0.54
2014-11-9,64.1,61.7,60.5,59.5,58.3,56.9,92,89,83,30.06,29.90,12,5,18,0.37
2014-11-10,66.8,63.1,60.4,60.5,58.0,52.7,93,84,68,30.11,30.05,18,6,18,0.01
2014-11-11,68.1,64.8,62.7,59.3,55.8,52.2,86,73,60,30.06,29.76,21,8,21,0.04
2014-11-12,66.7,62.0,56.6,60.1,56.1,51.9,92,82,60,29.76,29.64,24,6,24,0.71
2014-11-13,64.7,59.2,54.6,58.0,54.9,52.0,93,86,76,29.92,29.72,12,4,12,0.23
2014-11-14,68.0,60.5,55.7,57.4,53.9,49.4,89,79,64,29.98,29.91,7,2,7,0.00
2014-11-15,65.8,61.2,58.8,59.0,57.1,55.3,93,87,77,29.98,29.83,23,6,23,0.22
2014-11-16,66.1,60.0,55.2,60.2,56.0,50.9,95,87,69,29.92,29.84,25,3,25,0.43
2014-11-17,64.5,60.5,55.7,58.2,54.7,50.9,92,81,69,29.95,29.84,20,5,20,0.06
2014-11-18,64.9,59.6,55.2,59.0,53.5,49.7,92,81,67,29.98,29.83,21,2,21,0.10
2014-11-19,63.9,59.1,55.7,53.9,51.8,49.4,88,77,68,30.17,29.97,15,5,15,0.09
2014-11-20,65.5,57.0,52.7,55.5,48.2,43.1,91,73,50,30.25,30.16,7,1,7,0.00
2014-11-21,65.7,56.6,51.3,53.1,48.3,42.5,87,74,57,30.24,30.18,5,1,5,0.00
2014-11-22,64.8,56.3,51.0,52.7,48.1,44.0,86,74,59,30.28,30.21,5,1,5,0.00
2014-11-23,66.8,58.8,54.0,54.2,50.3,45.5,87,74,62,30.33,30.25,6,1,6,0.00
2014-11-24,66.2,58.8,54.2,56.7,52.4,47.9,92,80,67,30.29,30.19,6,1,6,0.00
2014-11-25,64.4,58.6,53.9,58.3,54.2,51.1,93,86,79,30.19,30.11,8,2,8,0.01
2014-11-26,61.5,58.5,56.7,57.3,55.5,54.2,94,90,85,30.12,29.97,10,3,13,0.46
2014-11-27,65.3,60.3,56.9,59.5,56.7,54.6,93,88,79,30.01,29.95,14,6,14,0.02
2014-11-28,67.3,64.7,58.8,58.7,53.2,49.3,90,67,54,29.96,29.83,24,11,24,0.00
2014-11-29,70.4,66.5,64.2,59.8,56.1,48.9,84,71,48,29.96,29.89,22,10,22,0.01
2014-11-30,75.8,71.9,69.4,58.0,49.7,43.3,66,46,32,29.91,29.77,27,14,27,0.00
2014-12-1,69.8,63.0,60.0,59.3,56.8,54.0,89,81,63,29.82,29.67,24,4,24,0.19
2014-12-2,64.5,59.5,55.0,56.8,55.2,53.2,95,86,73,29.70,29.61,18,5,18,0.43
2014-12-3,63.6,60.0,55.6,58.2,55.6,52.8,92,86,76,29.88,29.69,20,6,20,0.06
2014-12-4,62.2,58.9,54.1,59.2,55.9,52.3,94,90,84,30.01,29.88,17,5,17,0.77
2014-12-5,57.2,54.7,52.5,53.7,51.7,49.7,94,90,80,30.00,29.93,22,7,22,0.72
2014-12-6,59.1,53.0,49.5,54.7,50.0,46.4,94,89,77,30.01,29.94,14,2,14,0.43
2014-12-7,54.7,51.6,47.7,48.9,46.3,43.3,91,82,74,30.00,29.87,20,5,20,0.19
2014-12-8,56.9,52.0,48.9,46.7,43.8,41.1,87,74,66,29.90,29.85,13,4,14,0.00
2014-12-9,54.7,51.7,47.4,42.9,39.9,36.9,75,64,56,29.92,29.76,23,8,23,0.00
2014-12-10,53.0,50.3,47.2,41.6,39.3,36.4,74,66,60,30.08,29.92,23,10,23,0.00
2014-12-11,54.1,48.8,44.6,43.9,40.5,37.3,82,73,65,30.07,29.99,8,2,8,0.00
2014-12-12,59.0,50.6,46.9,46.3,41.1,37.5,83,70,48,30.23,30.06,6,1,6,0.00
2014-12-13,58.8,54.3,49.5,48.4,46.5,41.7,81,75,65,30.29,30.22,9,5,9,0.00
2014-12-14,60.2,55.6,53.6,49.4,47.0,44.2,80,73,65,30.26,30.19,13,6,13,0.00
2014-12-15,58.7,56.6,54.3,50.7,48.1,45.0,80,73,65,30.21,30.08,20,9,20,0.00
2014-12-16,59.5,55.3,50.8,55.6,50.0,47.5,92,83,68,30.08,29.79,18,7,23,1.43
2014-12-17,58.3,53.4,48.9,53.1,50.2,46.6,93,89,80,29.95,29.85,14,5,14,0.90
2014-12-18,60.7,54.6,50.2,52.6,46.8,42.2,89,76,62,30.20,29.93,13,3,16,0.00
2014-12-19,61.2,53.4,49.1,50.0,46.3,41.6,90,77,61,30.27,30.20,8,1,8,0.00
2014-12-20,62.9,56.3,52.5,54.6,51.4,49.0,91,84,71,30.26,30.19,8,3,8,0.02
2014-12-21,59.8,54.9,50.7,55.1,45.9,26.7,94,74,37,30.44,30.17,16,3,16,0.01
2014-12-22,59.2,51.7,46.2,48.0,37.2,25.8,83,59,39,30.49,30.42,7,1,7,0.00
2014-12-23,58.9,54.4,50.5,49.9,48.1,46.6,88,79,68,30.47,30.39,8,1,8,0.00
2014-12-24,57.4,54.6,53.2,48.6,46.6,44.1,79,74,70,30.40,30.30,10,1,10,0.00
2014-12-25,54.7,53.3,51.9,47.5,44.9,43.3,85,73,70,30.30,30.10,12,1,12,0.01
2014-12-26,54.5,51.1,46.4,49.6,42.6,30.5,87,74,52,30.10,29.98,25,7,25,0.01
2014-12-27,53.1,47.4,41.8,48.1,32.9,19.7,86,58,38,30.10,29.61,25,8,25,0.11
2014-12-28,53.5,49.3,44.0,50.6,43.0,39.1,92,79,63,29.64,29.43,23,8,23,0.57
2014-12-29,44.7,41.3,38.9,39.9,28.1,22.3,86,59,50,30.07,29.64,35,17,35,0.02
2014-12-30,39.4,35.3,31.0,24.9,21.8,17.6,73,58,47,30.11,30.05,43,22,43,0.00
2014-12-31,39.7,32.7,27.8,29.0,25.3,20.7,89,75,59,30.11,29.96,30,16,30,0.00
2015-1-1,45.3,41.7,37.4,32.3,27.8,23.9,69,58,49,30.35,30.11,28,14,28,0.00
2015-1-2,52.2,47.7,42.8,41.5,37.0,27.8,76,67,52,30.42,30.34,24,7,24,0.00